Terminal Aerodrome Forecast
Issued by NWS

Home | Current Version | Previous Version | Text Only | Print | Product List | Glossary On
Versions: 1 2 3 4 5 6 7 8 9 10 11 12 13 14 15 16 17 18 19 20 21 22 23 24 25 26 27 28 29 30 31 32 33 34 35 36 37 38 39 40 41 42 43 44 45 46 47 48 49 50
000
FTUS46 KOTX 241800 AAA
TAFCOE
TAF AMD
KCOE 241800Z 2418/2518 27004KT P6SM SCT002 OVC024
      TEMPO 2418/2422 4SM -SN BR OVC005
     FM242200 33004KT 4SM BR OVC007
     FM250700 VRB03KT 4SM BR VCSH OVC004
     FM251300 26003KT 3SM BR OVC003=

USA.gov is the U.S. government's official web portal to all federal, state and local government web resources and services.